| time (UTC) | temp F | wind direction | speed MPH | gust MPH | rain 1hr in | rain 24hr in | rain mn in | humidity % | barometer mb |
| 20260902061533 | 48 | 165 | 0.0 | 0.0 | 0.00 | 0.00 | 0.00 | 95 | 1003.0 |
| 20260902060017 | 47 | 166 | 0.0 | 0.0 | 0.00 | 0.00 | 0.00 | 96 | 1003.1 |
| 20260902054521 | 46 | 166 | 0.0 | 0.0 | 0.00 | 0.00 | 0.00 | 96 | 1003.0 |
| 20260902053014 | 45 | 166 | 0.0 | 0.0 | 0.00 | 0.00 | 0.00 | 96 | 1003.2 |
| 20260902051513 | 45 | 166 | 0.0 | 0.0 | 0.00 | 0.00 | 0.00 | 95 | 1003.3 |
| 20260902050015 | 45 | 166 | 0.0 | 0.0 | 0.00 | 0.00 | 0.00 | 95 | 1003.2 |
| 20260902044522 | 45 | 166 | 0.0 | 0.0 | 0.00 | 0.00 | 0.00 | 96 | 1003.3 |
| 20260902043011 | 45 | 166 | 0.0 | 0.0 | 0.00 | 0.00 | 0.00 | 96 | 1003.5 |
| 20260902041510 | 44 | 165 | 0.0 | 0.0 | 0.00 | 0.00 | 0.00 | 96 | 1003.6 |
| 20260902040009 | 43 | 219 | 0.0 | 0.0 | 0.00 | 0.00 | 0.00 | 95 | 1003.5 |
| 20260902034508 | 43 | 219 | 0.0 | 0.0 | 0.00 | 0.00 | 0.00 | 95 | 1003.7 |
| 20260902033007 | 43 | 221 | 0.0 | 0.0 | 0.00 | 0.00 | 0.00 | 95 | 1003.7 |
| 20260902031504 | 43 | 225 | 0.0 | 0.0 | 0.00 | 0.00 | 0.00 | 95 | 1003.9 |
| 20260902030003 | 42 | 227 | 0.0 | 0.0 | 0.00 | 0.00 | 0.00 | 95 | 1004.1 |
| 20260902024502 | 42 | 228 | 0.0 | 0.0 | 0.00 | 0.00 | 0.00 | 95 | 1004.0 |
| 20260902023110 | 42 | 228 | 0.0 | 0.0 | 0.00 | 0.00 | 0.00 | 95 | 1004.3 |
| 20260902021557 | 42 | 228 | 0.0 | 0.0 | 0.00 | 0.00 | 0.00 | 95 | 1004.2 |
| 20260902020055 | 42 | 228 | 0.0 | 0.0 | 0.00 | 0.00 | 0.00 | 94 | 1004.3 |
| 20260902014554 | 43 | 228 | 0.0 | 0.0 | 0.00 | 0.00 | 0.00 | 95 | 1004.5 |
| 20260902013053 | 43 | 228 | 0.0 | 0.0 | 0.00 | 0.00 | 0.00 | 95 | 1004.6 |
| 20260902011612 | 43 | 228 | 0.0 | 0.0 | 0.00 | 0.00 | 0.00 | 94 | 1004.7 |
| 20260902010049 | 43 | 228 | 0.0 | 0.0 | 0.00 | 0.00 | 0.00 | 94 | 1004.8 |
| 20260902004549 | 43 | 228 | 0.0 | 0.0 | 0.00 | 0.00 | 0.00 | 94 | 1004.8 |
| 20260902003046 | 43 | 228 | 0.0 | 0.0 | 0.00 | 0.00 | 0.00 | 94 | 1004.8 |
| 20260902001544 | 43 | 228 | 0.0 | 0.0 | 0.00 | 0.00 | 0.00 | 94 | 1004.8 |
| 20260902000043 | 44 | 228 | 0.0 | 0.0 | 0.00 | 0.00 | 0.00 | 94 | 1004.9 |
| 20260901234546 | 44 | 230 | 0.0 | 0.0 | 0.00 | 0.00 | 0.00 | 93 | 1005.0 |
| 20260901233038 | 44 | 230 | 0.0 | 0.0 | 0.00 | 0.00 | 0.00 | 93 | 1005.1 |
| 20260901231541 | 45 | 230 | 0.0 | 0.0 | 0.00 | 0.00 | 0.00 | 93 | 1005.2 |
| 20260901230032 | 45 | 230 | 0.0 | 0.0 | 0.00 | 0.00 | 0.00 | 93 | 1005.3 |
| 20260901224530 | 46 | 230 | 0.0 | 0.0 | 0.00 | 0.00 | 0.00 | 92 | 1005.3 |
| 20260901223027 | 47 | 230 | 0.0 | 0.0 | 0.00 | 0.00 | 0.00 | 92 | 1005.2 |
| 20260901221555 | 47 | 230 | 0.0 | 0.0 | 0.00 | 0.00 | 0.00 | 92 | 1005.4 |
| 20260901220036 | 48 | 230 | 0.0 | 0.0 | 0.00 | 0.00 | 0.00 | 92 | 1005.6 |
| 20260901214519 | 49 | 232 | 0.0 | 0.0 | 0.00 | 0.00 | 0.28 | 92 | 1005.6 |
| 20260901213022 | 49 | 232 | 0.0 | 0.0 | 0.00 | 0.00 | 0.28 | 91 | 1005.7 |
| 20260901211516 | 50 | 232 | 0.0 | 0.0 | 0.00 | 0.00 | 0.28 | 91 | 1005.8 |
| 20260901210011 | 51 | 232 | 0.0 | 0.0 | 0.00 | 0.00 | 0.28 | 91 | 1005.9 |
| 20260901204516 | 51 | 232 | 0.0 | 0.0 | 0.00 | 0.00 | 0.28 | 92 | 1005.9 |
| 20260901203010 | 51 | 232 | 0.0 | 0.0 | 0.00 | 0.00 | 0.28 | 91 | 1005.8 |
| 20260901201508 | 51 | 232 | 0.0 | 0.0 | 0.00 | 0.00 | 0.28 | 91 | 1005.8 |
| 20260901200022 | 52 | 232 | 0.0 | 0.0 | 0.00 | 0.00 | 0.28 | 90 | 1005.9 |
| 20260901194508 | 52 | 231 | 0.0 | 0.0 | 0.00 | 0.00 | 0.28 | 90 | 1006.0 |
| 20260901193008 | 52 | 231 | 0.0 | 0.0 | 0.00 | 0.00 | 0.28 | 89 | 1006.1 |
| 20260901191518 | 52 | 231 | 0.0 | 0.0 | 0.00 | 0.00 | 0.28 | 89 | 1006.0 |
| 20260901190007 | 52 | 231 | 0.0 | 0.0 | 0.00 | 0.00 | 0.28 | 88 | 1006.1 |
| 20260901184508 | 52 | 231 | 1.0 | 0.0 | 0.00 | 0.00 | 0.28 | 88 | 1006.1 |
| 20260901183006 | 52 | 223 | 1.0 | 0.0 | 0.00 | 0.00 | 0.28 | 87 | 1006.2 |
| 20260901181506 | 52 | 226 | 1.0 | 0.0 | 0.00 | 0.00 | 0.28 | 88 | 1006.3 |
| 20260901180005 | 52 | 227 | 1.0 | 0.0 | 0.00 | 0.00 | 0.28 | 88 | 1006.2 |
| 20260901174504 | 52 | 242 | 1.0 | 0.0 | 0.00 | 0.00 | 0.28 | 88 | 1006.3 |
| 20260901173003 | 52 | 219 | 2.0 | 0.0 | 0.00 | 0.00 | 0.28 | 88 | 1006.2 |
| 20260901171503 | 53 | 224 | 0.0 | 0.0 | 0.00 | 0.00 | 0.28 | 89 | 1006.1 |
| 20260901170001 | 53 | 223 | 0.0 | 0.0 | 0.00 | 0.00 | 0.28 | 89 | 1006.1 |
| 20260901164502 | 53 | 223 | 2.0 | 0.0 | 0.00 | 0.00 | 0.28 | 89 | 1006.1 |
| 20260901163100 | 53 | 231 | 2.0 | 0.0 | 0.00 | 0.00 | 0.28 | 89 | 1006.0 |
| 20260901161559 | 53 | 227 | 2.0 | 0.0 | 0.00 | 0.00 | 0.28 | 89 | 1006.1 |
| 20260901160115 | 53 | 227 | 3.0 | 0.0 | 0.00 | 0.00 | 0.28 | 90 | 1005.9 |
| 20260901154558 | 53 | 223 | 1.0 | 0.0 | 0.00 | 0.00 | 0.28 | 91 | 1006.0 |
| 20260901153114 | 53 | 225 | 1.0 | 0.0 | 0.00 | 0.00 | 0.28 | 91 | 1006.0 |
| 20260901151557 | 53 | 230 | 1.0 | 0.0 | 0.00 | 0.00 | 0.28 | 91 | 1005.8 |
| 20260901150111 | 53 | 227 | 1.0 | 0.0 | 0.00 | 0.00 | 0.28 | 91 | 1005.9 |
| 20260901144600 | 53 | 232 | 1.0 | 0.0 | 0.00 | 0.00 | 0.28 | 90 | 1005.9 |
| 20260901143113 | 53 | 281 | 1.0 | 0.0 | 0.00 | 0.00 | 0.27 | 90 | 1005.9 |
| 20260901141603 | 53 | 279 | 3.0 | 0.0 | 0.00 | 0.00 | 0.27 | 90 | 1005.9 |
| 20260901140131 | 53 | 298 | 2.0 | 0.0 | 0.00 | 0.00 | 0.27 | 91 | 1005.8 |
| 20260901134554 | 53 | 297 | 2.0 | 0.0 | 0.00 | 0.00 | 0.27 | 91 | 1005.8 |
| 20260901133055 | 53 | 302 | 1.0 | 0.0 | 0.00 | 0.00 | 0.27 | 91 | 1005.8 |
| 20260901131553 | 53 | 307 | 2.0 | 0.0 | 0.00 | 0.00 | 0.27 | 90 | 1005.8 |
| 20260901130052 | 53 | 285 | 3.0 | 0.0 | 0.00 | 0.00 | 0.27 | 90 | 1005.8 |
| 20260901124556 | 53 | 301 | 2.0 | 0.0 | 0.00 | 0.00 | 0.27 | 90 | 1005.7 |
| 20260901123052 | 53 | 315 | 2.0 | 0.0 | 0.00 | 0.00 | 0.27 | 92 | 1005.7 |
| 20260901121553 | 53 | 235 | 1.0 | 0.0 | 0.00 | 0.00 | 0.27 | 93 | 1005.7 |
| 20260901120048 | 52 | 291 | 1.0 | 0.0 | 0.00 | 0.00 | 0.27 | 94 | 1005.5 |
| 20260901114550 | 52 | 293 | 1.0 | 0.0 | 0.00 | 0.00 | 0.27 | 94 | 1005.5 |
| 20260901113046 | 52 | 305 | 1.0 | 0.0 | 0.00 | 0.00 | 0.27 | 95 | 1005.4 |
| 20260901111545 | 52 | 232 | 2.0 | 0.0 | 0.00 | 0.00 | 0.27 | 95 | 1005.2 |
| 20260901110044 | 51 | 225 | 3.0 | 0.0 | 0.00 | 0.00 | 0.27 | 95 | 1005.2 |
| 20260901104545 | 51 | 218 | 4.0 | 0.0 | 0.00 | 0.00 | 0.27 | 94 | 1005.1 |
| 20260901103042 | 51 | 241 | 4.0 | 0.0 | 0.00 | 0.00 | 0.27 | 94 | 1005.0 |
| 20260901101556 | 51 | 227 | 3.0 | 0.0 | 0.00 | 0.00 | 0.27 | 93 | 1004.8 |
| 20260901100046 | 52 | 267 | 2.0 | 0.0 | 0.00 | 0.00 | 0.27 | 93 | 1004.5 |
| 20260901094541 | 52 | 287 | 2.0 | 0.0 | 0.00 | 0.00 | 0.27 | 93 | 1004.5 |
| 20260901093034 | 52 | 220 | 1.0 | 0.0 | 0.00 | 0.00 | 0.27 | 93 | 1004.2 |
| 20260901091548 | 52 | 298 | 2.0 | 0.0 | 0.00 | 0.00 | 0.27 | 93 | 1004.1 |
| 20260901090036 | 52 | 306 | 3.0 | 0.0 | 0.00 | 0.00 | 0.27 | 93 | 1004.0 |
| 20260901084538 | 52 | 291 | 2.0 | 0.0 | 0.00 | 0.00 | 0.27 | 93 | 1004.0 |
| 20260901083039 | 52 | 292 | 3.0 | 0.0 | 0.00 | 0.00 | 0.27 | 94 | 1003.8 |
| 20260901081527 | 52 | 304 | 3.0 | 0.0 | 0.00 | 0.00 | 0.27 | 94 | 1003.9 |
| 20260901080058 | 52 | 296 | 2.0 | 0.0 | 0.00 | 0.00 | 0.26 | 94 | 1003.6 |
| 20260901074523 | 52 | 298 | 1.0 | 0.0 | 0.00 | 0.00 | 0.26 | 94 | 1003.4 |
| 20260901073023 | 52 | 311 | 2.0 | 0.0 | 0.00 | 0.00 | 0.26 | 94 | 1003.3 |
| 20260901071521 | 52 | 302 | 3.0 | 0.0 | 0.00 | 0.00 | 0.26 | 94 | 1003.2 |
| 20260901070028 | 52 | 294 | 3.0 | 0.0 | 0.00 | 0.00 | 0.26 | 95 | 1002.9 |
| 20260901064518 | 52 | 289 | 3.0 | 0.0 | 0.00 | 0.00 | 0.26 | 95 | 1002.7 |
| 20260901063018 | 53 | 219 | 0.0 | 0.0 | 0.00 | 0.00 | 0.26 | 96 | 1002.5 |